#timestamp,LO_Frequency,Hit 
1500962415.5,286047002.8,N
1500962435.3,286046998.1,N
1500962455.2,286046999.6,N
1500962475.9,286046996.9,N
1500962495.7,286046998.8,N
1500962515.6,286046998.2,N
1500962535.4,286046997.0,N
1500962555.2,286046999.4,N
1500962575.1,286047001.5,N
1500962576.0,286047001.5,N
1500962595.8,286047003.9,N
1500962615.6,286047003.7,N
1500962635.4,286047003.9,N
1500962655.3,286047000.2,N
1500962675.1,286047000.6,N
1500962695.8,286047002.5,N
1500962715.7,286047000.8,N
1500962735.5,286046998.2,N
1500962755.3,286046995.5,N
1500962775.2,286046995.8,N
1500962795.9,286046997.6,N
1500962815.7,286046996.1,N
1500962835.5,286046995.7,N
1500962855.4,286046999.1,N
1500962875.2,286047002.3,N
1500962895.0,286046998.7,N
1500962895.9,286046998.7,N
1500962915.8,286046995.6,N
1500962935.6,286046995.7,N
1500962955.4,286046997.4,N
1500962975.3,286046999.5,N
1500962995.1,286046998.5,N
1500962996.0,286046998.5,N
1500963015.8,286047000.9,N
1500963035.7,286047000.9,N
1500963055.5,286046999.4,N
1500963075.3,286046999.3,N
1500963095.2,286046997.1,N
1500963115.9,286046998.0,N
1500963135.7,286046995.6,N
1500963155.5,286046995.1,N
1500963175.4,286046997.9,N
1500963195.2,286046994.2,N
1500963215.0,286046993.8,N
1500963215.9,286046993.8,N
1500963235.8,286046995.3,N
1500963255.6,286046993.4,N
1500963275.4,286046997.1,N
1500963295.3,286046999.5,N
1500963315.1,286046998.5,N
1500963316.0,286046998.5,N
1500963335.8,286046998.8,N
1500963355.7,286046998.7,N
1500963375.5,286047000.7,N
1500963395.3,286046999.2,N
1500963415.1,286046995.9,N
1500963435.9,286046993.7,N
1500963455.7,286046993.8,N
1500963475.5,286046992.4,N
1500963495.4,286046992.0,N
1500963515.2,286046990.5,N
1500963535.0,286046993.1,N
1500963535.9,286046993.1,N
1500963555.8,286046994.0,N
1500963575.6,286046994.4,N
1500963595.4,286046993.4,N
1500963615.3,286046994.5,N
1500963635.1,286046990.3,N
1500963636.0,286046990.3,N
1500963655.8,286046987.0,N
1500963675.7,286046990.3,N
1500963695.5,286046992.8,N
1500963715.3,286046990.8,N
1500963735.1,286046989.7,N
1500963755.9,286046985.3,Y
1500963775.7,286046986.0,N
1500963795.5,286046986.6,N
1500963815.4,286046989.5,N
1500963835.2,286046988.8,N
1500963855.0,286046987.7,N
1500963855.9,286046987.7,N
1500963875.8,286046990.3,N
1500963895.6,286046990.9,N
1500963915.4,286046994.8,N
1500963935.3,286046991.7,N
1500963955.1,286046995.8,N
1500963956.0,286046995.8,N
1500963975.8,286046996.7,N
1500963995.7,286046999.3,N
1500964015.5,286046997.5,N
1500964035.3,286046995.9,N
1500964055.1,286046996.0,N
1500964075.9,286046993.5,N
1500964095.7,286046995.8,N
1500964115.5,286046995.7,N
1500964135.4,286046995.9,N
1500964155.2,286046995.2,N
1500964175.0,286046996.1,N
1500964175.9,286046996.1,N
1500964195.8,286046995.5,N
1500964215.6,286046994.2,N
1500964235.4,286046992.4,N
1500964255.3,286046993.7,N
1500964275.1,286046991.8,N
1500964276.0,286046991.8,N
1500964295.8,286046992.2,N
1500964315.6,286046994.4,N
1500964335.5,286046990.5,N
1500964355.3,286046987.5,N
1500964375.1,286046989.5,N
1500964395.9,286046991.1,N
1500964415.7,286046994.8,N
1500964435.5,286046994.5,N
1500964455.4,286046992.4,N
1500964475.2,286046991.8,N
1500964495.0,286046994.5,N
1500964495.9,286046994.5,N
1500964515.8,286046998.0,N
1500964535.6,286046995.2,N
1500964555.4,286046995.5,N
1500964575.2,286046996.0,N
1500964595.1,286046994.3,N
1500964596.0,286046994.3,N
1500964615.8,286046994.4,N
1500964635.6,286046992.3,N
1500964655.5,286046993.1,N
1500964675.3,286046991.4,N
1500964695.1,286046993.9,N
1500964715.9,286046991.7,N
1500964735.7,286046993.6,N
1500964755.5,286046996.5,N
1500964775.4,286046996.1,N
1500964795.2,286046995.1,N
1500964815.0,286046997.7,N
1500964815.9,286046997.7,N
1500964835.7,286046999.6,N
1500964855.6,286046997.5,N
1500964875.4,286046998.6,N
1500964895.2,286046999.1,N
1500964915.1,286046997.2,N
1500964916.0,286046997.2,N
1500964935.8,286046995.9,N
1500964955.6,286046993.8,N
1500964975.5,286046995.9,N
1500964995.3,286046996.0,N
1500965015.1,286046995.9,N
1500965035.9,286046996.2,N
1500965055.7,286046997.4,N
1500965075.5,286046993.3,N
1500965095.3,286046991.7,N
1500965115.2,286046993.1,N
1500965135.0,286046992.4,N
1500965135.9,286046992.4,N
1500965155.8,286046992.9,N
1500965175.6,286046993.9,N
1500965195.4,286046993.5,N
1500965215.2,286046994.1,N
1500965235.1,286046993.0,N
1500965236.0,286046993.0,N
1500965255.8,286046991.0,N
1500965275.6,286046990.7,N
1500965295.5,286046988.5,N
1500965315.3,286046988.5,N
1500965335.1,286046992.5,N
1500965355.9,286046989.7,N
1500965375.7,286046987.7,Y
1500965395.5,286046992.1,N
1500965415.4,286046992.2,N
1500965435.2,286046994.6,N
1500965455.0,286046996.3,N
1500965455.9,286046996.3,N
1500965475.8,286046996.2,N
1500965495.6,286046996.1,N
1500965515.4,286046996.5,N
1500965535.2,286046997.8,N
1500965555.1,286046997.5,N
1500965556.0,286046997.5,N
1500965575.8,286046995.4,N
1500965595.6,286046998.1,N
1500965615.5,286047002.8,N
1500965635.3,286047000.2,N
1500965655.1,286047000.5,N
1500965675.9,286047000.0,N
1500965695.7,286047004.1,N
1500965715.5,286047004.0,N
1500965735.4,286047001.4,N
1500965755.2,286047001.6,N
1500965775.0,286047000.7,N
1500965775.9,286047000.7,N
1500965795.8,286046998.7,N
1500965815.6,286046996.8,N
1500965835.4,286046997.1,N
1500965855.2,286046994.3,N
1500965875.1,286046994.9,N
1500965876.0,286046994.9,N
1500965895.8,286046997.0,N
1500965915.6,286046994.1,N
1500965935.5,286046995.9,N
1500965955.3,286046997.7,N
1500965975.1,286046995.5,N
1500965995.9,286046997.6,N
